Station PSLC1 - 9412110 - Port San Luis, CA Image indicating link to RSS feed of recent meteorological observations for station PSLC1


Conditions at PSLC1 as of
(12:18 pm PDT)
1918 GMT on 05/24/2024:
     

Click on the graph icon in the table below to see a time series plot of the last five days of that observation.

5-day plot - Wind Direction Wind Direction (WDIR): W ( 280 deg true )
5-day plot - Wind Speed Wind Speed (WSPD): 9.9 kts
5-day plot - Wind Gust Wind Gust (GST): 22.9 kts
5-day plot - Atmospheric Pressure Atmospheric Pressure (PRES):29.99 in
5-day plot - Air Temperature Air Temperature (ATMP): 56.7 °F
5-day plot - Water Temperature Water Temperature (WTMP): 53.8 °F
5-day plot - Wind Speed at 10 Meters Wind Speed at 10 meters (WSPD10M): 9.7 kts
5-day plot - Wind Speed at 20 Meters Wind Speed at 20 meters (WSPD20M): 9.7 kts
5-day plot -  Wind Speed, Wind Gust and Atmospheric Pressure Combined plot of Wind Speed, Gust, and Air Pressure
NOS Water Level Observation Network Water Level
Previous observations
TIME
(PDT)
5-day plot - Wind Direction
WDIR
 
5-day plot - Wind Speed
WSPD
kts
5-day plot - Wind Gust
GST
kts
5-day plot - Wave Height
WVHT
ft
5-day plot - Dominant Wave Period
DPD
sec
5-day plot - Average Wave Period
APD
sec
5-day plot - Mean Wave Direction
MWD
 
5-day plot - Atmospheric Pressure
PRES
in
5-day plot - Pressure Tendency
PTDY
in
5-day plot - Air Temperature
ATMP
°F
5-day plot - Water Temperature
WTMP
°F
5-day plot - Dew Point
DEWP
°F
5-day plot - Salinity
SAL
psu
5-day plot - Visibility
VIS
nmi
5-day plot - Tide (above MLLW)
TIDE
ft
2024-05-24 12:12 pm SW 9.9 17.1----29.99- 56.1 53.6----
2024-05-24 12:06 pm W 15.0 22.9----29.99- 55.9 53.6----
2024-05-24 12:00 pm W 13.0 19.0----29.99+0.02 55.9 53.8----
2024-05-24 11:54 am W 12.0 17.1----29.99- 55.9 53.8----
2024-05-24 11:48 am W 9.9 15.0----29.99- 55.6 53.8----
2024-05-24 11:42 am W 8.0 17.1----29.99- 55.9 53.8----
2024-05-24 11:36 am W 8.9 13.0----29.99- 56.5 53.8----
2024-05-24 11:30 amWSW 8.0 14.0----29.99- 56.3 53.8----
2024-05-24 11:24 am W 9.9 13.0----29.98- 55.9 53.8----
2024-05-24 11:18 am W 8.9 15.0----29.99- 55.2 53.8----
2024-05-24 11:12 amWSW 11.1 13.0----29.98- 55.0 53.8----
2024-05-24 11:06 am W 9.9 13.0----29.98- 54.9 53.8----
2024-05-24 11:00 amWSW 8.0 13.0----29.98+0.02 54.7 53.8----
2024-05-24 10:54 am W 9.9 14.0----29.98- 54.7 54.0----
2024-05-24 10:48 am W 8.9 13.0----29.98- 54.7 54.0----
2024-05-24 10:42 am W 8.9 14.0----29.98- 54.5 54.0----
2024-05-24 10:36 am W 11.1 13.0----29.98- 54.5 54.0----
2024-05-24 10:30 am W 7.0 11.1----29.98- 55.0 54.0----
2024-05-24 10:24 am W 9.9 14.0----29.98- 54.5 54.0----
2024-05-24 10:18 am W 8.9 12.0----29.98- 55.4 54.0----
2024-05-24 10:12 am W 8.9 11.1----29.98- 55.0 54.0----
2024-05-24 10:06 am W 7.0 14.0----29.98- 54.7 53.8----
2024-05-24 10:00 am SW 8.9 14.0----29.98+0.02 54.5 53.8----
2024-05-24 09:54 amWSW 8.0 12.0----29.98- 54.5 53.8----
2024-05-24 09:48 am SW 8.0 12.0----29.98- 54.3 53.8----
2024-05-24 09:42 amSSE 5.1 9.9----29.98- 55.2 54.0----
2024-05-24 09:36 amSSE 2.9 6.0----29.98- 55.6 53.8----
2024-05-24 09:30 am S 1.9 6.0----29.98- 55.9 53.8----
2024-05-24 09:24 amSSE 1.9 5.1----29.98- 55.4 53.8----
2024-05-24 09:18 amSSE 4.1 5.1----29.98- 55.2 53.8----
2024-05-24 09:12 am S 1.9 4.1----29.97- 55.6 53.8----
2024-05-24 09:06 amSSW 1.9 1.9----29.98- 55.2 54.0----
2024-05-24 09:00 am S 1.9 2.9----29.97+0.01 54.7 54.0----
2024-05-24 08:54 am S 1.9 1.9----29.97- 54.5 54.0----
2024-05-24 08:48 amSSE 1.9 1.9----29.97- 54.3 54.0----
2024-05-24 08:42 am S 1.0 1.9----29.97- 55.0 54.0----
2024-05-24 08:36 am- 0.0 0.0----29.97- 55.8 54.0----
2024-05-24 08:30 am- 0.0 1.9----29.97- 56.3 54.0----
2024-05-24 08:24 am- 0.0 1.0----29.97- 55.8 54.0----
2024-05-24 08:18 am NE 1.0 1.0----29.97- 54.5 54.0----
2024-05-24 08:12 amENE 1.0 2.9----29.96- 54.1 54.0----
2024-05-24 08:06 amENE 1.0 1.9----29.96- 54.0 54.0----
2024-05-24 08:00 amNNE 1.9 2.9----29.96+0.01 53.6 54.1----
2024-05-24 07:54 am E 1.9 1.9----29.96- 53.6 54.1----
2024-05-24 07:48 am- 0.0 1.0----29.96- 53.8 54.1----
2024-05-24 07:42 amSSW 1.0 4.1----29.96- 52.7 54.1----
2024-05-24 07:36 am SW 2.9 5.1----29.96- 52.5 54.1----
2024-05-24 07:30 amSSW 1.9 4.1----29.96- 52.7 54.1----
2024-05-24 07:24 amWNW 2.9 6.0----29.96- 52.5 54.3----
2024-05-24 07:18 amNNW 2.9 8.0----29.96- 52.5 54.3----
2024-05-24 07:12 amNNW 5.1 8.0----29.96- 52.5 54.3----
2024-05-24 07:06 am N 5.1 8.0----29.96- 52.5 54.3----
2024-05-24 07:00 amNNW 5.1 8.9----29.96+0.00 52.3 54.3----
2024-05-24 06:54 amWNW 5.1 8.9----29.96- 52.3 54.3----
2024-05-24 06:48 amWNW 5.1 8.0----29.96- 52.2 54.5----
2024-05-24 06:42 am W 4.1 8.0----29.96- 52.2 54.5----
2024-05-24 06:36 amWNW 5.1 7.0----29.96- 52.2 54.5----
2024-05-24 06:30 amWNW 5.1 8.9----29.96- 52.2 54.5----
2024-05-24 06:24 am W 8.0 9.9----29.96- 52.2 54.5----
2024-05-24 06:18 am W 9.9 11.1----29.96- 52.2 54.5----
2024-05-24 06:12 am W 8.0 9.9----29.96- 52.2 54.5----
2024-05-24 06:06 am W 9.9 12.0----29.96- 52.2 54.5----
2024-05-24 06:00 amWNW 11.1 12.0----29.96+0.00 52.2 54.5----
2024-05-24 05:54 amWNW 9.9 12.0----29.96- 52.2 54.7----
2024-05-24 05:48 amWNW 6.0 8.9----29.95- 52.2 54.7----
2024-05-24 05:42 amWNW 8.0 9.9----29.95- 52.2 54.7----
2024-05-24 05:36 am W 8.9 11.1----29.95- 52.2 54.7----
2024-05-24 05:30 am W 8.9 9.9----29.95- 52.3 54.7----
2024-05-24 05:24 amWNW 8.0 9.9----29.95- 52.2 54.7----
2024-05-24 05:18 amWNW 8.9 11.1----29.95- 52.2 54.7----
2024-05-24 05:12 amWNW 9.9 11.1----29.95- 52.2 54.9----
2024-05-24 05:06 am W 8.9 11.1----29.95- 52.2 54.9----
2024-05-24 05:00 am W 7.0 9.9----29.95-0.01 52.2 54.9----
2024-05-24 04:54 amWNW 8.0 9.9----29.95- 52.0 54.9----
2024-05-24 04:48 amWNW 9.9 11.1----29.95- 52.2 54.9----
2024-05-24 04:42 amWNW 5.1 9.9----29.95- 52.2 55.0----
2024-05-24 04:36 amWNW 6.0 8.9----29.95- 52.0 54.9----
2024-05-24 04:30 am W 5.1 8.0----29.95- 52.0 55.0----
2024-05-24 04:24 am W 5.1 9.9----29.95- 52.0 54.9----
2024-05-24 04:18 amWSW 6.0 11.1----29.95- 52.2 54.9----
2024-05-24 04:12 am W 8.0 9.9----29.96- 52.2 55.0----
2024-05-24 04:06 am W 8.9 9.9----29.96- 52.2 55.0----
2024-05-24 04:00 am W 8.9 11.1----29.96-0.02 52.2 54.9----
2024-05-24 03:54 am W 8.0 9.9----29.96- 52.3 54.9----
2024-05-24 03:48 am W 9.9 11.1----29.96- 52.3 55.0----
2024-05-24 03:42 am W 8.9 11.1----29.96- 52.3 55.2----
2024-05-24 03:36 am W 9.9 12.0----29.96- 52.3 55.2----
2024-05-24 03:30 amWSW 7.0 8.0----29.96- 52.5 55.0----
2024-05-24 03:24 amWSW 8.0 8.0----29.96- 52.5 55.0----
2024-05-24 03:18 amWSW 6.0 7.0----29.96- 52.7 55.0----
2024-05-24 03:12 am W 6.0 7.0----29.96- 52.7 55.0----
2024-05-24 03:06 am W 6.0 7.0----29.96- 52.9 55.2----
2024-05-24 03:00 am W 6.0 7.0----29.96-0.01 52.7 55.2----
2024-05-24 02:54 am W 7.0 8.0----29.96- 52.5 55.2----
2024-05-24 02:48 amWNW 6.0 8.0----29.97- 52.7 55.2----
2024-05-24 02:42 amWNW 5.1 7.0----29.96- 52.7 55.4----
2024-05-24 02:36 am W 6.0 7.0----29.97- 52.7 55.4----
2024-05-24 02:30 am W 5.1 6.0----29.97- 52.9 55.4----
2024-05-24 02:24 am W 5.1 6.0----29.96- 52.9 55.4----
2024-05-24 02:18 amWNW 5.1 7.0----29.97- 52.9 55.6----
2024-05-24 02:12 am W 5.1 7.0----29.97- 52.9 55.6----
2024-05-24 02:06 am W 6.0 8.0----29.97- 52.9 55.6----
2024-05-24 02:00 amWNW 6.0 7.0----29.96-0.02 52.9 55.6----
2024-05-24 01:54 amWNW 5.1 7.0----29.96- 52.9 55.6----
2024-05-24 01:48 amWNW 7.0 8.0----29.96- 52.9 55.6----
2024-05-24 01:42 amWNW 6.0 8.0----29.96- 52.9 55.6----
2024-05-24 01:36 amWNW 7.0 8.9----29.97- 52.9 55.6----
2024-05-24 01:30 amWNW 7.0 8.0----29.97- 52.9 55.6----
2024-05-24 01:24 amWNW 8.0 8.9----29.97- 52.9 55.6----
2024-05-24 01:18 amWNW 8.0 8.9----29.97- 52.9 55.6----
2024-05-24 01:12 amWNW 7.0 8.9----29.97- 52.9 55.6----
2024-05-24 01:06 amWNW 8.0 8.9----29.98- 52.9 55.6----
2024-05-24 01:00 amWNW 7.0 8.9----29.98+0.00 52.9 55.6----
2024-05-24 12:54 amWNW 8.0 8.9----29.98- 52.9 55.6----
2024-05-24 12:48 amWNW 8.0 9.9----29.98- 52.9 55.6----
2024-05-24 12:42 amWNW 6.0 8.9----29.98- 52.9 55.4----
2024-05-24 12:36 amWNW 8.9 11.1----29.98- 52.9 55.4----
2024-05-24 12:30 amWNW 8.0 11.1----29.98- 52.9 55.4----
2024-05-24 12:24 amWNW 8.9 11.1----29.98- 52.9 55.4----
2024-05-24 12:18 amWNW 8.9 9.9----29.98-- 55.4----
2024-05-24 12:12 am W 8.0 9.9----29.98- 52.9 55.4----
2024-05-24 12:06 amWNW 8.9 11.1----29.98- 52.9 55.2----
2024-05-24 12:00 amWNW 8.0 11.1----29.98+0.00 53.1 55.2----
2024-05-23 11:54 pm W 8.9 11.1----29.98- 52.9 55.2----
2024-05-23 11:48 pm W 7.0 9.9----29.98- 53.1 55.2----
2024-05-23 11:42 pm W 8.0 11.1----29.98- 53.1 55.2----
2024-05-23 11:36 pm W 9.9 12.0----29.98- 53.1 55.2----
2024-05-23 11:30 pm W 8.9 12.0----29.99- 53.1 55.2----
2024-05-23 11:24 pm W 8.9 11.1----29.98- 53.1 55.0----
2024-05-23 11:18 pm W 9.9 12.0----29.99- 53.1 55.0----
2024-05-23 11:12 pm W 9.9 12.0----29.99- 53.1 55.0----
2024-05-23 11:06 pm W 9.9 12.0----29.99- 53.2 55.0----
2024-05-23 11:00 pm W 8.9 11.1----29.99+0.02- 55.0----
2024-05-23 10:54 pmWNW 8.9 11.1----29.99-- 55.0----
2024-05-23 10:48 pm W 8.9 11.1----29.99- 53.2 54.9----
2024-05-23 10:42 pm W 9.9 11.1----29.99- 53.4 54.9----
2024-05-23 10:36 pm W 8.9 11.1----29.99- 53.4 54.9----
2024-05-23 10:30 pm W 6.0 9.9----29.99- 53.8 54.7----
2024-05-23 10:24 pm W 6.0 7.0----29.99- 54.0 54.7----
2024-05-23 10:18 pmWNW 5.1 8.0----29.99- 54.1 54.7----
2024-05-23 10:12 pm W 6.0 7.0----29.99- 54.1 54.7----
2024-05-23 10:06 pmWNW 6.0 8.0----29.98- 54.1 54.7----
2024-05-23 10:00 pmWNW 6.0 7.0----29.98+0.03 54.1 54.7----
2024-05-23 09:54 pm W 6.0 7.0----29.98- 54.0 54.5----
2024-05-23 09:48 pmWNW 6.0 6.0----29.98-- 54.5----
2024-05-23 09:42 pm W 4.1 5.1----29.98-- 54.5----
2024-05-23 09:36 pm W 1.9 2.9----29.98-- 54.5----
2024-05-23 09:30 pm SW 1.9 4.1----29.98- 54.1 54.5----
2024-05-23 09:24 pmSSE 1.0 2.9----29.98- 54.1 54.5----
2024-05-23 09:18 pmESE 1.9 1.9----29.98- 54.0 54.5----
2024-05-23 09:12 pm NE 1.9 2.9----29.98- 54.0 54.5----
2024-05-23 09:06 pmNNE 2.9 5.1----29.98- 54.0 54.5----
2024-05-23 09:00 pmNNE 2.9 7.0----29.97+0.03 54.1 54.5----
2024-05-23 08:54 pmNNE 7.0 8.0----29.97- 54.1 54.5----
2024-05-23 08:48 pmNNE 7.0 8.9----29.97- 54.5 54.7----
2024-05-23 08:42 pmNNE 7.0 8.9----29.96- 54.9 54.7----
2024-05-23 08:36 pmENE 7.0 8.9----29.96- 54.7 54.7----
2024-05-23 08:30 pm E 8.0 9.9----29.97- 54.7 54.7----
2024-05-23 08:24 pm E 8.0 8.9----29.97- 55.0 54.7----
2024-05-23 08:18 pm E 8.0 8.9----29.97- 55.6 54.7----
2024-05-23 08:12 pm E 7.0 8.0----29.96- 55.8 54.5----
2024-05-23 08:06 pm E 6.0 7.0----29.96- 55.8 54.5----
2024-05-23 08:00 pm E 7.0 8.0----29.96+0.02 55.6 54.5----
2024-05-23 07:54 pmENE 5.1 6.0----29.96- 55.8 54.5----
2024-05-23 07:48 pmENE 6.0 8.0----29.96- 55.8 54.5----
2024-05-23 07:42 pm NE 7.0 8.0----29.96- 56.1 54.5----
2024-05-23 07:36 pm N 4.1 5.1----29.96- 56.5 54.5----
2024-05-23 07:30 pm W 2.9 5.1----29.96- 56.1 54.7----
2024-05-23 07:24 pm W 4.1 7.0----29.96- 56.1 54.7----
2024-05-23 07:18 pm W 6.0 7.0----29.96- 55.9 54.7----
2024-05-23 07:12 pm W 6.0 8.0----29.96- 56.1 54.7----
2024-05-23 07:06 pm W 5.1 7.0----29.95- 56.3 54.7----
2024-05-23 07:00 pm W 5.1 8.9----29.95+0.01 56.3 54.7----
2024-05-23 06:54 pm W 7.0 11.1----29.95- 56.1 54.7----
2024-05-23 06:48 pmWSW 8.0 12.0----29.95- 56.5 54.7----
2024-05-23 06:42 pm W 9.9 12.0----29.94- 55.9 54.9----
2024-05-23 06:36 pm W 8.9 14.0----29.94- 56.7 54.9----
2024-05-23 06:30 pm W 11.1 15.0----29.95- 56.5 54.9----
2024-05-23 06:24 pm W 12.0 17.1----29.94- 56.3 54.9----
2024-05-23 06:18 pm W 11.1 15.0----29.94- 56.3 54.9----
2024-05-23 06:12 pm W 13.0 17.1----29.94- 56.5 55.0----
2024-05-23 06:06 pmWSW 13.0 18.1----29.94- 55.8 55.0----
2024-05-23 06:00 pm W 15.9 21.0----29.94+0.00 55.4 55.0----
2024-05-23 05:54 pm W 14.0 19.0----29.94- 55.8 55.2----
2024-05-23 05:48 pm W 15.9 20.0----29.94- 55.8 55.2----
2024-05-23 05:42 pm W 14.0 21.0----29.94- 55.9 55.2----
2024-05-23 05:36 pm W 19.0 22.9----29.94- 55.0 55.2----
2024-05-23 05:30 pm W 19.0 24.1----29.94- 54.7 55.2----
2024-05-23 05:24 pm W 20.0 24.1----29.94- 54.5 55.4----
2024-05-23 05:18 pm W 21.0 25.1----29.94- 54.5 55.6----
2024-05-23 05:12 pm W 22.0 26.0----29.94- 54.3 55.6----
2024-05-23 05:06 pm W 22.9 26.0----29.94- 54.5 55.6----
2024-05-23 05:00 pm W 19.0 25.1----29.94-0.02 55.2 55.6----
2024-05-23 04:54 pm W 20.0 25.1----29.94- 55.0 55.8----
2024-05-23 04:48 pm W 21.0 25.1----29.94- 55.0 55.8----
2024-05-23 04:42 pm W 21.0 25.1----29.94- 54.9 55.8----
2024-05-23 04:36 pm W 21.0 24.1----29.94- 54.9 55.8----
2024-05-23 04:30 pm W 20.0 25.1----29.94- 55.2 55.8----
2024-05-23 04:24 pm W 21.0 25.1----29.94- 55.0 55.8----
2024-05-23 04:18 pm W 21.0 24.1----29.94- 55.2 55.9----
2024-05-23 04:12 pm W 21.0 24.1----29.94- 55.2 55.9----
2024-05-23 04:06 pm W 21.0 25.1----29.94- 55.2 56.1----
2024-05-23 04:00 pm W 21.0 25.1----29.94-0.02 55.0 56.3----
2024-05-23 03:54 pm W 19.0 25.1----29.94- 55.8 56.3----
2024-05-23 03:48 pm W 22.0 26.0----29.94- 55.0 56.3----
2024-05-23 03:42 pm W 22.0 25.1----29.94- 54.9 56.5----
2024-05-23 03:36 pm W 20.0 24.1----29.94- 55.4 56.5----
2024-05-23 03:30 pm W 22.0 27.0----29.94- 54.9 56.5----
2024-05-23 03:24 pm W 21.0 25.1----29.95- 55.0 56.5----
2024-05-23 03:18 pm W 19.0 26.0----29.95- 55.6 56.5----
2024-05-23 03:12 pm W 20.0 25.1----29.95- 55.8 56.5----
2024-05-23 03:06 pm W 24.1 27.0----29.95- 54.9 56.5----
2024-05-23 03:00 pm W 21.0 24.1----29.95-0.02 55.6 56.5----
2024-05-23 02:54 pm W 19.0 24.1----29.95- 56.1 56.5----
2024-05-23 02:48 pm W 19.0 22.9----29.95- 56.1 56.5----
2024-05-23 02:42 pm W 18.1 22.9----29.95- 56.7 56.5----
2024-05-23 02:36 pm W 20.0 22.9----29.95- 56.1 56.3----
2024-05-23 02:30 pm W 18.1 22.9----29.95- 55.9 56.3----
2024-05-23 02:24 pm W 19.0 22.0----29.95- 56.5 56.3----
2024-05-23 02:18 pm W 15.0 19.0----29.96- 56.7 56.3----
2024-05-23 02:12 pm W 15.0 20.0----29.96- 56.8 56.3----
2024-05-23 02:06 pm W 17.1 20.0----29.96- 56.1 56.3----
2024-05-23 02:00 pm W 15.9 18.1----29.96-0.01 56.5 56.3----
2024-05-23 01:54 pm W 13.0 18.1----29.96- 57.2 56.1----
2024-05-23 01:48 pm W 13.0 18.1----29.96- 57.0 56.1----
2024-05-23 01:42 pmWSW 12.0 15.9----29.96- 56.7 56.1----
2024-05-23 01:36 pmWSW 12.0 15.0----29.97- 55.9 56.1----
2024-05-23 01:30 pmWSW 11.1 14.0----29.97- 56.3 56.1----
2024-05-23 01:24 pm W 12.0 15.0----29.96- 56.3 55.9----
2024-05-23 01:18 pm W 8.9 13.0----29.96- 56.5 55.9----
2024-05-23 01:12 pmWSW 8.9 12.0----29.96- 56.8 55.9----
2024-05-23 01:06 pmWSW 8.0 9.9----29.96- 57.2 55.9----
2024-05-23 01:00 pm SW 7.0 8.9----29.96-0.01 57.2 55.8----
2024-05-23 12:54 pmSSW 5.1 8.9----29.96- 57.6 55.8----
2024-05-23 12:48 pmSSW 5.1 8.9----29.96- 57.2 55.8----
2024-05-23 12:42 pmSSW 6.0 7.0----29.96- 57.4 55.8----
2024-05-23 12:36 pmSSW 6.0 8.9----29.97- 57.0 55.8----
2024-05-23 12:30 pm S 5.1 8.0----29.97- 57.4 55.8----
2024-05-23 12:24 pm S 6.0 8.0----29.97- 57.4 55.8----
2024-05-23 12:18 pmSSW 4.1 5.1----29.97- 57.7 55.8----
2024-05-23 12:12 pmSSW 2.9 4.1----29.97- 57.6 55.8----
2024-05-23 12:06 pmSSW 2.9 5.1----29.97- 57.0 55.8----
2024-05-23 12:00 pm SW 2.9 7.0----29.97+0.00 56.7 55.6----
2024-05-23 11:54 am S 5.1 8.0----29.97- 56.1 55.6----